Location: Gleizolles
(44.4833°N, 6.7667°E)
Time: 15:48:27
(UTC+00:00)

Altair - Pass Details

Date: 26 June 2024
Orbit: 1502 x 1681 km, 47.2° (Epoch: 13 July)

Event Time Altitude Azimuth Distance (km) Brightness Sun altitude
Rises 07:57:23 0° 291° (WNW) 4,754 9.6 41.1°
Reaches altitude 10° 08:01:13 10° 278° (W) 3,796 9.2 41.7°
Maximum altitude 08:08:15 23° 231° (SW) 2,922 8.9 43.0°
Drops below altitude 10° 08:15:28 10° 183° (S) 3,885 9.8 44.2°
Sets 08:19:29 0° 170° (S) 4,890 10.3 44.9°
